Location: Pradons
(44.4746°N, 4.3578°E)
Time: 20:14:08
(UTC+00:00)

Cosmos 1703 - Pass Details

Date: 08 August 2020
Orbit: 523 x 541 km, 82.5° (Epoch: 01 October)

Event Time Altitude Azimuth Distance (km) Brightness Sun altitude
Rises 03:55:58 0° 343° (NNW) 2,711 7.1 -7.4°
Reaches altitude 10° 03:58:14 10° 336° (NNW) 1,813 6.1 -7.1°
Maximum altitude 04:01:55 37° 268° (W) 845 3.9 -6.5°
Drops below altitude 10° 04:05:35 10° 200° (SSW) 1,793 5.5 -6.0°
Sets 04:07:49 0° 192° (SSW) 2,676 6.4 -5.6°
